Columbia Airport, CA

5:18 PM PST on December 06, 2019 (GMT -0800)
Columbia Airport

Weather History for KO22 - August, 2019

Change the Weather History Date:

Tuesday, August 6, 2019

  Actual Average (WUND) Record (WUND)
Temperature  
Mean Temperature 81 °F -  
Max Temperature 98 °F - - (-1)
Min Temperature 64 °F - - (-1)
Cooling Degree Days 16    
Growing Degree Days 31 (Base 50)    
Moisture  
Dew Point 51 °F    
Average Humidity 39    
Maximum Humidity 68    
Minimum Humidity 15    
Precipitation  
Precipitation 0.00 in - - ()
Sea Level Pressure  
Sea Level Pressure 29.96 in    
Wind  
Wind Speed 2 mph (SW)    
Max Wind Speed 8 mph    
Max Gust Speed 14 mph    
Visibility 10 miles    
Events      
Averages and records for this station are not official NWS values.
T = Trace of Precipitation, MM = Missing Value Source: NWS Daily Summary

Daily Weather History Graph

Daily Weather History Graph

Search for Another Location

Airport or City:

Astronomy

Aug. 06, 2019 Rise Set
Actual Time 6:08 AM PDT 8:05 PM PDT
Civil Twilight 5:39 AM PDT 8:34 PM PDT
Nautical Twilight 5:04 AM PDT 9:09 PM PDT
Astronomical Twilight 4:27 AM PDT 9:46 PM PDT
Moon 12:33 PM PDT (8/6) No Moon Set
Length of Visible Light 14h 54m
Length of Day
13h 56m
Waxing Crescent, 40% of the Moon is Illuminated
Aug 6
Waxing Crescent
Aug 7
First Quarter
Aug 15
Full
Aug 23
Last Quarter
Aug 30
New

Hourly Weather History & Observations

Time (PDT) Temp. Heat Index Dew Point Humidity Pressure Visibility Wind Dir Wind Speed Gust Speed Precip Events Conditions
12:15 AM 68.0 °F - 51.8 °F 56% 29.97 in 10.0 mi Calm Calm - N/A   Clear
12:35 AM 68.0 °F - 51.8 °F 56% 29.97 in 10.0 mi Calm Calm - N/A   Clear
12:55 AM 68.0 °F - 51.8 °F 56% 29.97 in 10.0 mi Calm Calm - N/A   Clear
1:15 AM 68.0 °F - 50.0 °F 52% 29.96 in 10.0 mi Calm Calm - N/A   Clear
1:35 AM 68.0 °F - 50.0 °F 52% 29.96 in 10.0 mi North - - N/A   Clear
1:55 AM 68.0 °F - 50.0 °F 52% 29.96 in 10.0 mi Calm Calm - N/A   Clear
2:15 AM 68.0 °F - 50.0 °F 52% 29.96 in 10.0 mi Calm Calm - N/A   Clear
2:35 AM 66.2 °F - 50.0 °F 56% 29.96 in 10.0 mi Calm Calm - N/A   Clear
2:55 AM 66.2 °F - 50.0 °F 56% 29.96 in 10.0 mi North - - N/A   Clear
3:15 AM 66.2 °F - 51.8 °F 60% 29.96 in 10.0 mi Calm Calm - N/A   Clear
3:35 AM 68.0 °F - 51.8 °F 56% 29.96 in 10.0 mi North - - N/A   Clear
3:55 AM 68.0 °F - 51.8 °F 56% 29.96 in 10.0 mi Calm Calm - N/A   Clear
4:15 AM 68.0 °F - 51.8 °F 56% 29.96 in 10.0 mi Calm Calm - N/A   Clear
4:35 AM 68.0 °F - 51.8 °F 56% 29.96 in 10.0 mi SSW 3.5 mph - N/A   Clear
4:55 AM 68.0 °F - 51.8 °F 56% 29.96 in 10.0 mi North - - N/A   Clear
5:15 AM 66.2 °F - 51.8 °F 60% 29.96 in 10.0 mi Calm Calm - N/A   Clear
5:35 AM 66.2 °F - 51.8 °F 60% 29.96 in 10.0 mi Calm Calm - N/A   Clear
5:55 AM 64.4 °F - 51.8 °F 64% 29.96 in 10.0 mi North - - N/A   Clear
6:15 AM 64.4 °F - 51.8 °F 64% 29.97 in 10.0 mi North - - N/A   Clear
6:35 AM 64.4 °F - 51.8 °F 64% 29.97 in 10.0 mi Calm Calm - N/A   Clear
6:55 AM 64.4 °F - 53.6 °F 68% 29.97 in 10.0 mi Calm Calm - N/A   Clear
7:15 AM 66.2 °F - 55.4 °F 68% 29.97 in 10.0 mi North - - N/A   Clear
7:35 AM 69.8 °F - 57.2 °F 64% 29.97 in 10.0 mi Calm Calm - N/A   Clear
7:55 AM 73.4 °F - 57.2 °F 57% 29.97 in 10.0 mi Calm Calm - N/A   Clear
8:15 AM 77.0 °F - 57.2 °F 50% 29.98 in 10.0 mi Calm Calm - N/A   Clear
8:35 AM 80.6 °F 80.8 °F 57.2 °F 45% 29.98 in 10.0 mi Calm Calm - N/A   Clear
8:55 AM 84.2 °F 83.0 °F 55.4 °F 37% 29.98 in 10.0 mi Calm Calm - N/A   Clear
9:15 AM 86.0 °F - 51.8 °F 31% 29.98 in 10.0 mi Calm Calm - N/A   Clear
9:35 AM 87.8 °F - 51.8 °F 29% 29.98 in 10.0 mi Calm Calm - N/A   Clear
9:55 AM 87.8 °F 85.7 °F 53.6 °F 31% 29.98 in 10.0 mi Variable 3.5 mph - N/A   Clear
10:15 AM 89.6 °F - 51.8 °F 27% 29.98 in 10.0 mi Calm Calm - N/A   Clear
10:35 AM 91.4 °F - 51.8 °F 26% 29.98 in 10.0 mi Variable 3.5 mph - N/A   Clear
10:55 AM 93.2 °F - 51.8 °F 24% 29.98 in 10.0 mi Variable 4.6 mph - N/A   Clear
11:15 AM 93.2 °F - 51.8 °F 24% 29.98 in 10.0 mi Variable 4.6 mph - N/A   Clear
11:35 AM 93.2 °F - 48.2 °F 21% 29.98 in 10.0 mi Calm Calm - N/A   Clear
11:55 AM 95.0 °F - 51.8 °F 23% 29.98 in 10.0 mi Variable 4.6 mph 11.5 mph N/A   Clear
12:15 PM 95.0 °F - 51.8 °F 23% 29.97 in 10.0 mi Variable 5.8 mph - N/A   Clear
12:35 PM 95.0 °F - 50.0 °F 22% 29.97 in 10.0 mi SW 5.8 mph 11.5 mph N/A   Clear
12:55 PM 96.8 °F - 50.0 °F 20% 29.97 in 10.0 mi Variable 8.1 mph - N/A   Clear
1:15 PM 95.0 °F - 48.2 °F 20% 29.97 in 10.0 mi Variable 5.8 mph 12.7 mph N/A   Clear
1:35 PM 96.8 °F - 46.4 °F 18% 29.96 in 10.0 mi Variable 5.8 mph 11.5 mph N/A   Clear
1:55 PM 96.8 °F - 46.4 °F 18% 29.96 in 10.0 mi Variable 6.9 mph 13.8 mph N/A   Clear
2:15 PM 96.8 °F - 46.4 °F 18% 29.96 in 10.0 mi Variable 5.8 mph 13.8 mph N/A   Clear
2:35 PM 95.0 °F - 46.4 °F 19% 29.96 in 10.0 mi SW 5.8 mph 11.5 mph N/A   Clear
2:55 PM 98.6 °F - 44.6 °F 16% 29.95 in 10.0 mi SW 5.8 mph - N/A   Clear
3:15 PM 98.6 °F - 42.8 °F 15% 29.95 in 10.0 mi SW 5.8 mph - N/A   Clear
3:35 PM 98.6 °F - 44.6 °F 16% 29.95 in 10.0 mi Variable 4.6 mph 11.5 mph N/A   Clear
3:55 PM 96.8 °F - 44.6 °F 17% 29.94 in 10.0 mi Variable 4.6 mph - N/A   Clear
4:15 PM 95.0 °F - 42.8 °F 16% 29.94 in 10.0 mi WSW 8.1 mph - N/A   Clear
4:35 PM 98.6 °F - 44.6 °F 16% 29.94 in 10.0 mi Variable 5.8 mph - N/A   Clear
4:55 PM 96.8 °F - 44.6 °F 17% 29.93 in 10.0 mi Variable 5.8 mph - N/A   Clear
5:15 PM 96.8 °F - 44.6 °F 17% 29.93 in 10.0 mi Variable 6.9 mph - N/A   Clear
5:35 PM 93.2 °F - 44.6 °F 19% 29.93 in 10.0 mi Variable 5.8 mph - N/A   Clear
5:55 PM 91.4 °F - 44.6 °F 20% 29.93 in 10.0 mi Variable 5.8 mph - N/A   Clear
6:15 PM 91.4 °F - 46.4 °F 21% 29.93 in 10.0 mi Variable 5.8 mph - N/A   Clear
6:35 PM 91.4 °F - 46.4 °F 21% 29.93 in 10.0 mi SW 3.5 mph - N/A   Clear
6:55 PM 91.4 °F - 46.4 °F 21% 29.93 in 10.0 mi SSW 3.5 mph - N/A   Clear
7:15 PM 87.8 °F 85.7 °F 53.6 °F 31% 29.93 in 10.0 mi Calm Calm - N/A   Clear
7:35 PM 86.0 °F 84.5 °F 55.4 °F 35% 29.93 in 10.0 mi Calm Calm - N/A   Clear
7:55 PM 82.4 °F 81.7 °F 55.4 °F 39% 29.94 in 10.0 mi Calm Calm - N/A   Clear
8:15 PM 80.6 °F 80.5 °F 55.4 °F 42% 29.94 in 10.0 mi Calm Calm - N/A   Clear
8:35 PM 78.8 °F - 55.4 °F 44% 29.94 in 10.0 mi Variable 4.6 mph - N/A   Clear
8:55 PM 77.0 °F - 55.4 °F 47% 29.94 in 10.0 mi Variable 4.6 mph - N/A   Clear
9:15 PM 77.0 °F - 53.6 °F 44% 29.95 in 10.0 mi Variable 3.5 mph - N/A   Clear
9:35 PM 75.2 °F - 53.6 °F 47% 29.96 in 10.0 mi Variable 4.6 mph - N/A   Clear
9:55 PM 73.4 °F - 51.8 °F 47% 29.97 in 10.0 mi Calm Calm - N/A   Clear
10:15 PM 71.6 °F - 51.8 °F 50% 29.96 in 10.0 mi Calm Calm - N/A   Clear
10:35 PM 71.6 °F - 51.8 °F 50% 29.97 in 10.0 mi Calm Calm - N/A   Clear
10:55 PM 71.6 °F - 51.8 °F 50% 29.97 in 10.0 mi Calm Calm - N/A   Clear
11:15 PM 69.8 °F - 51.8 °F 53% 29.96 in 10.0 mi Calm Calm - N/A   Clear
11:35 PM 69.8 °F - 51.8 °F 53% 29.96 in 10.0 mi Calm Calm - N/A   Clear
11:55 PM 69.8 °F - 53.6 °F 56% 29.97 in 10.0 mi Variable 3.5 mph - N/A   Clear